Location: Unspecified
(0.0000°N, 0.0000°E)
Time: 13:50:03
(UTC+00:00)

Transit 4A - Visible Passes

Search period start: 22 January 2026 00:00
Search period end: 01 February 2026 00:00
Orbit: 867 x 975 km, 66.8° (Epoch: 22 January)

Date Brightness Start Highest point End Pass type
(mag) Time Alt. Az. Time Alt. Az. Time Alt. Az.
22 Jan 7.9 19:50:05 10° N 19:56:16 57° ENE 20:02:30 10° SSE visible
22 Jan 10.6 21:39:54 10° W 21:42:23 12° WSW 21:44:53 10° SW visible
23 Jan 7.9 19:58:38 10° NNW 20:04:59 87° WSW 20:11:23 10° SSE visible
24 Jan 8.7 20:07:32 10° NW 20:13:41 53° WSW 20:19:53 10° S visible
25 Jan 9.0 18:31:30 10° NNE 18:36:22 23° ENE 18:41:15 10° ESE visible
25 Jan 9.6 20:16:53 10° NW 20:22:25 32° WSW 20:27:59 10° S visible
26 Jan 8.4 18:39:16 10° N 18:45:05 39° ENE 18:50:56 10° SE visible
26 Jan 10.4 20:26:50 10° WNW 20:31:09 19° WSW 20:35:30 10° SSW visible
27 Jan 8.0 18:47:32 10° N 18:53:48 65° ENE 19:00:06 10° SSE visible
27 Jan 11.1 20:38:47 10° W 20:39:56 10° WSW 20:41:05 10° WSW visible
28 Jan 8.2 18:56:10 10° NNW 19:02:30 78° WSW 19:08:53 10° SSE visible
29 Jan 9.2 19:05:10 10° NW 19:11:13 47° WSW 19:17:18 10° S visible
30 Jan 10.2 19:14:38 10° NW 19:19:57 28° WSW 19:25:17 10° SSW visible
31 Jan 11.0 19:24:50 10° WNW 19:28:41 17° WSW 19:32:34 10° SSW visible
